Ravenna, OH

9:05 AM EDT on September 16, 2019 (GMT -0400)
Ravenna

Weather History for KPOV - August, 2019

Change the Weather History Date:

Sunday, August 25, 2019

  Actual Average (KCAK) Record (KCAK)
Temperature  
Mean Temperature 62 °F -  
Max Temperature 74 °F 79 °F 93 °F (1948)
Min Temperature 50 °F 58 °F 40 °F (1942)
Degree Days  
Heating Degree Days 3    
Growing Degree Days 12 (Base 50)    
Moisture  
Dew Point 50 °F    
Average Humidity 69    
Maximum Humidity 94    
Minimum Humidity 40    
Precipitation  
Precipitation 0.00 in - - ()
Sea Level Pressure  
Sea Level Pressure 30.21 in    
Wind  
Wind Speed 7 mph (East)    
Max Wind Speed 13 mph    
Max Gust Speed 22 mph    
Visibility 10 miles    
Events      
Averages and records for this station are not official NWS values.
T = Trace of Precipitation, MM = Missing Value Source: NWS Daily Summary

Daily Weather History Graph

Daily Weather History Graph

Search for Another Location

Airport or City:

Astronomy

Aug. 25, 2019 Rise Set
Actual Time 6:44 AM EDT 8:09 PM EDT
Civil Twilight 6:15 AM EDT 8:38 PM EDT
Nautical Twilight 5:40 AM EDT 9:12 PM EDT
Astronomical Twilight 5:03 AM EDT 9:49 PM EDT
Moon 1:16 AM EDT (8/25) 4:30 PM EDT (8/25)
Length of Visible Light 14h 22m
Length of Day
13h 25m
Waning Crescent, 29% of the Moon is Illuminated
Aug 25
Waning Crescent
Aug 30
New
Sep 5
First Quarter
Sep 14
Full
Sep 21
Last Quarter

Hourly Weather History & Observations

Time (EDT) Temp. Dew Point Humidity Pressure Visibility Wind Dir Wind Speed Gust Speed Precip Events Conditions
12:19 AM 55.6 °F 51.3 °F 85% 30.27 in 10.0 mi ENE 6.9 mph - N/A   Clear
12:37 AM 55.4 °F 51.3 °F 86% 30.27 in 10.0 mi ENE 6.9 mph - N/A   Clear
12:55 AM 55.4 °F 51.3 °F 86% 30.27 in 10.0 mi ENE 5.8 mph - N/A   Clear
1:15 AM 55.0 °F 51.1 °F 86% 30.26 in 10.0 mi East 6.9 mph - N/A   Clear
1:35 AM 54.7 °F 50.9 °F 87% 30.26 in 10.0 mi ENE 6.9 mph - N/A   Clear
1:59 AM 54.5 °F 50.9 °F 88% 30.25 in 10.0 mi East 5.8 mph - N/A   Clear
2:15 AM 53.8 °F 50.5 °F 89% 30.25 in 10.0 mi East 4.6 mph - N/A   Clear
2:39 AM 53.4 °F 50.5 °F 90% 30.25 in 10.0 mi East 4.6 mph - N/A   Clear
2:57 AM 52.5 °F 49.6 °F 90% 30.24 in 10.0 mi East 6.9 mph - N/A   Clear
3:19 AM 52.3 °F 50.0 °F 92% 30.24 in 10.0 mi East 4.6 mph - N/A   Clear
3:37 AM 52.0 °F 49.5 °F 91% 30.24 in 10.0 mi ENE 5.8 mph - N/A   Clear
3:56 AM 51.8 °F 49.1 °F 90% 30.23 in 10.0 mi ENE 5.8 mph - N/A   Clear
4:18 AM 51.4 °F 49.1 °F 92% 30.23 in 10.0 mi ENE 5.8 mph - N/A   Clear
4:55 AM 51.1 °F 48.9 °F 92% 30.23 in 10.0 mi East 4.6 mph - N/A   Clear
5:15 AM 50.9 °F 48.6 °F 92% 30.23 in 10.0 mi ENE 5.8 mph - N/A   Clear
5:35 AM 50.7 °F 48.6 °F 92% 30.23 in 10.0 mi East 4.6 mph - N/A   Clear
5:58 AM 50.9 °F 48.9 °F 93% 30.24 in 10.0 mi ENE 4.6 mph - N/A   Clear
6:15 AM 50.2 °F 48.2 °F 93% 30.24 in 10.0 mi ENE 5.8 mph - N/A   Clear
6:38 AM 50.0 °F 48.2 °F 94% 30.25 in 10.0 mi East 5.8 mph - N/A   Clear
6:56 AM 50.0 °F 48.2 °F 94% 30.25 in 10.0 mi East 5.8 mph - N/A   Clear
7:18 AM 50.9 °F 49.1 °F 94% 30.25 in 10.0 mi East 5.8 mph - N/A   Clear
7:36 AM 52.5 °F 50.0 °F 91% 30.25 in 10.0 mi East 6.9 mph - N/A   Clear
7:55 AM 54.0 °F 50.9 °F 89% 30.25 in 10.0 mi East 6.9 mph - N/A   Clear
8:15 AM 55.4 °F 51.3 °F 86% 30.26 in 10.0 mi East 5.8 mph - N/A   Clear
8:35 AM 56.7 °F 51.4 °F 83% 30.26 in 10.0 mi East 9.2 mph - N/A   Clear
8:58 AM 58.5 °F 52.2 °F 80% 30.25 in 10.0 mi East 6.9 mph - N/A   Clear
9:15 AM 59.4 °F 51.4 °F 75% 30.26 in 10.0 mi East 5.8 mph - N/A   Clear
9:38 AM 61.7 °F 52.3 °F 71% 30.25 in 10.0 mi East 8.1 mph - N/A   Clear
9:56 AM 63.3 °F 52.2 °F 67% 30.25 in 10.0 mi East 5.8 mph - N/A   Clear
10:18 AM 64.8 °F 52.3 °F 64% 30.25 in 10.0 mi East 5.8 mph - N/A   Clear
10:36 AM 65.8 °F 52.0 °F 61% 30.25 in 10.0 mi ESE 4.6 mph - N/A   Clear
10:55 AM 66.9 °F 52.0 °F 59% 30.25 in 10.0 mi ESE 4.6 mph - N/A   Clear
11:15 AM 67.6 °F 51.8 °F 57% 30.25 in 10.0 mi ESE 5.8 mph - N/A   Clear
11:35 AM 68.9 °F 52.0 °F 55% 30.25 in 10.0 mi East 8.1 mph - N/A   Clear
11:59 AM 69.3 °F 50.4 °F 51% 30.25 in 7.0 mi ESE 6.9 mph - N/A   Scattered Clouds
12:15 PM 70.0 °F 48.0 °F 46% 30.24 in 7.0 mi East 12.7 mph - N/A   Scattered Clouds
12:39 PM 70.3 °F 48.7 °F 46% 30.23 in 7.0 mi ESE 8.1 mph - N/A   Scattered Clouds
12:57 PM 70.9 °F 48.9 °F 46% 30.22 in 7.0 mi SE 5.8 mph - N/A   Clear
1:19 PM 71.1 °F 48.2 °F 44% 30.22 in 10.0 mi ESE 9.2 mph - N/A   Clear
1:38 PM 71.8 °F 47.3 °F 42% 30.21 in 10.0 mi ESE 12.7 mph 20.7 mph N/A   Clear
1:56 PM 72.3 °F 47.1 °F 41% 30.21 in 10.0 mi East 11.5 mph 16.1 mph N/A   Clear
2:19 PM 72.7 °F 47.8 °F 41% 30.21 in 10.0 mi East 8.1 mph 21.9 mph N/A   Clear
2:37 PM 73.9 °F 50.0 °F 43% 30.20 in 10.0 mi ESE 8.1 mph 16.1 mph N/A   Scattered Clouds
2:55 PM 72.7 °F 47.7 °F 41% 30.19 in 10.0 mi ESE 11.5 mph - N/A   Scattered Clouds
3:18 PM 74.1 °F 50.7 °F 44% 30.19 in 10.0 mi East 6.9 mph 11.5 mph N/A   Scattered Clouds
3:36 PM 74.1 °F 48.7 °F 41% 30.19 in 7.0 mi SE 5.8 mph - N/A   Scattered Clouds
3:55 PM 73.9 °F 48.9 °F 41% 30.18 in 10.0 mi East 9.2 mph - N/A   Mostly Cloudy
4:15 PM 74.1 °F 49.5 °F 42% 30.18 in 10.0 mi East 10.4 mph - N/A   Mostly Cloudy
4:35 PM 74.1 °F 48.2 °F 40% 30.17 in 10.0 mi ESE 9.2 mph - N/A   Scattered Clouds
4:58 PM 71.8 °F 48.0 °F 43% 30.18 in 10.0 mi SE 5.8 mph - N/A   Scattered Clouds
5:15 PM 73.2 °F 48.6 °F 42% 30.17 in 10.0 mi East 10.4 mph - N/A   Scattered Clouds
5:39 PM 72.7 °F 48.7 °F 43% 30.17 in 10.0 mi ESE 9.2 mph - N/A   Scattered Clouds
5:57 PM 71.8 °F 48.6 °F 44% 30.17 in 10.0 mi ESE 8.1 mph - N/A   Clear
6:19 PM 71.6 °F 49.1 °F 45% 30.16 in 10.0 mi ESE 6.9 mph - N/A   Clear
6:37 PM 70.2 °F 49.6 °F 48% 30.15 in 10.0 mi ESE 9.2 mph - N/A   Clear
6:55 PM 69.1 °F 49.5 °F 50% 30.15 in 10.0 mi ESE 8.1 mph - N/A   Clear
7:15 PM 69.4 °F 50.7 °F 51% 30.15 in 10.0 mi ESE 5.8 mph - N/A   Clear
7:35 PM 68.0 °F 50.9 °F 54% 30.14 in 10.0 mi East 5.8 mph - N/A   Clear
8:15 PM 62.8 °F 52.9 °F 70% 30.14 in 10.0 mi East 6.9 mph - N/A   Clear
8:39 PM 62.4 °F 51.4 °F 67% 30.14 in 10.0 mi East 3.5 mph - N/A   Clear
8:57 PM 62.8 °F 51.4 °F 66% 30.15 in 10.0 mi East 3.5 mph - N/A   Clear
9:19 PM 59.7 °F 52.3 °F 77% 30.15 in 10.0 mi East 4.6 mph - N/A   Clear
9:37 PM 59.2 °F 52.0 °F 77% 30.15 in 10.0 mi East 4.6 mph - N/A   Clear
9:55 PM 59.5 °F 52.2 °F 77% 30.15 in 10.0 mi East 3.5 mph - N/A   Clear
10:18 PM 57.9 °F 51.8 °F 80% 30.16 in 10.0 mi East 3.5 mph - N/A   Clear
10:35 PM 56.3 °F 51.6 °F 84% 30.15 in 10.0 mi East 4.6 mph - N/A   Clear
10:55 PM 56.7 °F 51.4 °F 83% 30.16 in 10.0 mi East 4.6 mph - N/A   Clear
11:15 PM 56.3 °F 50.7 °F 82% 30.16 in 10.0 mi East 5.8 mph - N/A   Clear
11:35 PM 55.0 °F 50.5 °F 85% 30.16 in 10.0 mi East 5.8 mph - N/A   Clear
11:58 PM 56.7 °F 50.4 °F 79% 30.16 in 10.0 mi East 4.6 mph - N/A   Clear